DELTA 1 DEB, 21497

Orbit data source: Space-Track

DELTA 1 DEB, 21497 is space debris in SSO originally from a launch on Thu, 12 Jun 1975 UTC launched from the Air Force Western Test Range (AFWTR). Debris objects in space refer to the collection of defunct objects orbiting the Earth. Examples of debris include non-operational satellites, rocket bodies, and fragments generated from explosions, collisions, or faulty payload assembly.

Loading next visibility...
Identifier
21497, 1975-052FS
Orbit
SSO
Country
Flag of USUS
Related business
Manufacturer
Unknown
Mission
Spacecraft
Bus & Motor
Unknown
Mass
Unknown
Launch date (UTC)
1975-06-12 (51 years ago)
Launch vehicle
Unknown
Launch site
Air Force Western Test Range (AFWTR)
Object type
Payload
Rocket body
Debris
Shape & HBR
Unknown shape, 0.1 m
Radar Cross Section
Medium (>0.1 m² and <1 m²)

Expand to show TLE details & history
Last TLE update: 1 day ago

TLE from 1 day ago
0 DELTA 1 DEB
1 21497U 75052FS  26168.37227454  .00000002  00000-0  92727-4 0  9992
2 21497 100.0300  97.3767 0059167   6.2159 117.3304 13.32992254708025
Epoch: 2026-06-17T08:56Z
TLE epoch observation values (Epoch: 2026-06-17T08:56:04.520Z)
Latitude
54.67994°
Longitude
-107.89345°
Altitude
1,165.039 km
Speed
7.266 km/s
True Right ascension
19h 27m 01s
True Declination
54° 31' 35"
Sunlit
Object was in daylight at epoch
Visualization orbit readout
Latitude
Unknown
Longitude
Unknown
Altitude
Unknown
Speed
Unknown
Apparent Right ascension
Unknown
Apparent Declination
Unknown
Sunlit
N/A
Visualization observer readout
Local Sidereal Time
20:17:23
Azimuth
Unknown
Elevation
Unknown
Doppler factor
Unknown
Orbital elements
Apogee altitude
1,177.279 km
Perigee altitude
1,088.399 km
Semi-major axis
7,510.976 km
Eccentricity
0.00592
Inclination
100.03°
RAAN
97.3767°
Arg. of periapsis
6.2159°
True anomaly
117.93067°
Mean anomaly
117.3304°
Eccentric anomaly
117.63074°
Mean motion
3.33425 °/min
Orbital period
107.97 mins
BSTAR
0.000092727
Loading maneuver chart data...
Computing Atmospheric mass density...

Documentation

Showing up to 5 results
|